Voltar ao catálogo

SL-8 DEB

AtivoLEO
NORAD 15785·DEBRIS·🇷🇺 Russia

Lançado Feb 21, 1984 de Plesetsk Cosmodrome

Loading…

Próximas Passagens (próximas 24 horas)

TLE

AtualizadoSource: Space-Track

Época: Sep 14, 2026, 06:56 UTC

1 15785U 84019C   26257.28895627  .00001599  00000-0  25355-3 0  9994
2 15785  74.0303 113.3611 0007692 149.7350 210.4268 14.73055043347238

Acompanhe SL-8 DEB em tempo real com AllMySat

Download on the App Store